Location: Asheville, NC
(35.6000°N, 82.5500°W)
Time: 20:03:29

PCSat - Pass Details

Date: 18 March 2018
Orbit: 785 x 795 km, 67.0° (Epoch: 17 March)

Event Time Altitude Azimuth Distance (km) Brightness Sun altitude
Rises 05:56:49 0° 348° (NNW) 3,298 12.8 -20.9°
Reaches altitude 10° 06:00:04 10° 8° (N) 2,364 12.3 -20.3°
Maximum altitude 06:03:40 18° 50° (NE) 1,878 12.3 -19.6°
Drops below altitude 10° 06:07:15 10° 92° (E) 2,355 13.2 -18.9°
Sets 06:10:27 0° 111° (ESE) 3,279 13.7 -18.2°
